TimeCDT,TemperatureF,Dew PointF,Humidity,Sea Level PressureIn,VisibilityMPH,Wind Direction,Wind SpeedMPH,Gust SpeedMPH,PrecipitationIn,Events,Conditions,WindDirDegrees,DateUTC
12:53 AM,30.0,12.9,49,30.21,10.0,WNW,8.1,-,N/A,,Clear,290,2013-04-02 05:53:00
1:53 AM,28.9,12.9,51,30.21,10.0,WNW,6.9,-,N/A,,Clear,300,2013-04-02 06:53:00
2:53 AM,28.0,14.0,56,30.21,10.0,WNW,6.9,-,N/A,,Clear,300,2013-04-02 07:53:00
3:53 AM,28.0,14.0,56,30.21,10.0,WNW,6.9,-,N/A,,Clear,290,2013-04-02 08:53:00
4:53 AM,27.0,14.0,58,30.22,10.0,West,5.8,-,N/A,,Clear,270,2013-04-02 09:53:00
5:53 AM,26.1,15.1,63,30.23,10.0,West,5.8,-,N/A,,Clear,260,2013-04-02 10:53:00
6:53 AM,26.1,15.1,63,30.25,10.0,West,6.9,-,N/A,,Clear,280,2013-04-02 11:53:00
7:53 AM,28.9,15.1,56,30.27,10.0,WNW,8.1,-,N/A,,Clear,290,2013-04-02 12:53:00
8:53 AM,32.0,15.1,50,30.27,10.0,NW,11.5,-,N/A,,Clear,320,2013-04-02 13:53:00
9:53 AM,35.1,15.1,44,30.27,10.0,NW,8.1,-,N/A,,Clear,310,2013-04-02 14:53:00
10:53 AM,37.0,12.9,37,30.28,10.0,NW,9.2,16.1,N/A,,Clear,310,2013-04-02 15:53:00
11:53 AM,39.0,12.9,34,30.27,10.0,WNW,8.1,17.3,N/A,,Clear,290,2013-04-02 16:53:00
12:53 PM,39.9,10.9,31,30.26,10.0,NW,11.5,18.4,N/A,,Clear,320,2013-04-02 17:53:00
1:53 PM,42.1,10.0,27,30.25,10.0,WNW,12.7,19.6,N/A,,Scattered Clouds,300,2013-04-02 18:53:00
2:53 PM,42.1,9.0,26,30.25,10.0,WNW,13.8,21.9,N/A,,Mostly Cloudy,290,2013-04-02 19:53:00
3:53 PM,42.1,10.0,27,30.25,10.0,WNW,11.5,17.3,N/A,,Mostly Cloudy,300,2013-04-02 20:53:00
4:53 PM,41.0,8.1,26,30.25,10.0,WNW,12.7,18.4,N/A,,Mostly Cloudy,300,2013-04-02 21:53:00
5:53 PM,39.9,10.0,29,30.27,10.0,WNW,9.2,-,N/A,,Overcast,300,2013-04-02 22:53:00
6:53 PM,39.0,12.0,33,30.28,10.0,NW,3.5,-,N/A,,Scattered Clouds,320,2013-04-02 23:53:00
7:53 PM,37.0,10.9,34,30.29,10.0,NW,4.6,-,N/A,,Clear,310,2013-04-03 00:53:00
8:53 PM,35.1,10.9,37,30.30,10.0,NNW,3.5,-,N/A,,Clear,330,2013-04-03 01:53:00
9:53 PM,33.1,12.9,43,30.32,10.0,NNW,3.5,-,N/A,,Clear,330,2013-04-03 02:53:00
10:53 PM,32.0,12.9,45,30.33,10.0,NW,5.8,-,N/A,,Clear,320,2013-04-03 03:53:00
11:53 PM,32.0,12.9,45,30.33,10.0,WNW,4.6,-,N/A,,Clear,300,2013-04-03 04:53:00